DW2959 Murcia ES current weather conditions

sailwx.info

Wind from 074 at 1 knots

Air temperature 19.4° C
Dewpoint 15.1° C

Last reported at 2014-Sep-16 01:41 UTC.
Time now 2014-Sep-16 03:00 UTC

Location: N 38°00' W 001°02'.
View on Google Maps.

See reports from other nearby stations

  
Tides and Currents Weather Stations Pressure Air Temp Water Temp Dewpoint Dewpoint Depression Visibility Wind Speed Wind Dir Waves Ship Positions
date/time (UTC)wind fromknots sea level pressurealtimeterstation pressurevisibilityair tempwater tempwave heightnotes
2014-Sep-16 01:41 074 1 19.4
2014-Sep-16 01:26 074 20.0
2014-Sep-16 01:11 074 20.0
2014-Sep-16 00:56 074 20.6
2014-Sep-16 00:41 074 0 20.6
2014-Sep-16 00:26 074 0 20.6
2014-Sep-16 00:11 074 20.0
2014-Sep-15 23:56 074 0 20.0
2014-Sep-15 23:41 069 0 20.0
2014-Sep-15 23:26 069 20.6
2014-Sep-15 23:11 069 21.1
2014-Sep-15 22:56 069 0 21.7
2014-Sep-15 22:41 069 0 21.7
2014-Sep-15 22:26 068 0 21.7
2014-Sep-15 22:11 068 22.2
2014-Sep-15 21:56 068 0 22.8
2014-Sep-15 21:41 066 0 23.3
2014-Sep-15 21:26 065 2 23.9
2014-Sep-15 21:11 091 1 23.9
2014-Sep-15 20:56 092 0 24.4
2014-Sep-15 20:11 101 1 25.6
2014-Sep-15 19:56 085 2 25.6
2014-Sep-15 19:41 082 1 26.1
2014-Sep-15 19:26 074 2 26.1
2014-Sep-15 19:11 049 3 26.7
2014-Sep-15 18:56 123 0 27.8
2014-Sep-15 18:41 124 28.3
2014-Sep-15 18:26 124 0 28.9
2014-Sep-15 18:11 160 28.9
2014-Sep-15 17:41 163 3 30.0
2014-Sep-15 17:26 161 3 30.6
2014-Sep-15 17:11 163 5 30.6
2014-Sep-15 16:56 168 4 31.1
2014-Sep-15 16:41 134 4 31.1
2014-Sep-15 16:26 164 5 31.1
2014-Sep-15 16:11 121 5 31.1
2014-Sep-15 15:56 166 6 31.1
2014-Sep-15 15:41 163 6 30.6
2014-Sep-15 15:26 156 6 31.7
2014-Sep-15 15:11 163 6 31.7
2014-Sep-15 14:56 153 6 30.6
2014-Sep-15 14:41 163 6 31.7
2014-Sep-15 14:25 119 5 32.8
2014-Sep-15 14:10 174 4 33.3
2014-Sep-15 13:55 058 1 33.3
2014-Sep-15 13:40 069 0 32.8
2014-Sep-15 13:25 005 3 32.2
2014-Sep-15 13:10 030 4 32.2
2014-Sep-15 12:55 321 2 32.2
2014-Sep-15 12:40 285 2 31.7
2014-Sep-15 12:25 275 3 31.1
2014-Sep-15 12:10 313 2 31.1
2014-Sep-15 11:55 273 1 31.1
2014-Sep-15 11:40 157 3 30.6
2014-Sep-15 11:25 290 1 30.6
2014-Sep-15 11:10 268 3 30.0
2014-Sep-15 10:55 282 3 30.0
2014-Sep-15 10:40 300 3 29.4
2014-Sep-15 10:25 267 5 28.9
2014-Sep-15 10:10 284 4 28.9
2014-Sep-15 09:55 205 4 28.9
2014-Sep-15 09:40 234 3 28.3
2014-Sep-15 09:25 263 5 27.8
2014-Sep-15 09:10 271 4 27.8
2014-Sep-15 08:55 300 2 27.2
2014-Sep-15 08:40 254 2 26.1
2014-Sep-15 08:25 237 3 26.1
2014-Sep-15 08:09 257 2 25.6
2014-Sep-15 07:54 263 2 25.0
2014-Sep-15 07:40 267 3 24.4
2014-Sep-15 07:24 234 1 24.4
2014-Sep-15 07:09 223 1 24.4
2014-Sep-15 06:54 254 1 23.9
2014-Sep-15 06:39 268 2 24.4
2014-Sep-15 06:25 259 2 24.4
2014-Sep-15 06:09
2014-Sep-15 05:54
2014-Sep-15 05:39
2014-Sep-15 05:24
2014-Sep-15 05:09
2014-Sep-15 04:54
2014-Sep-15 04:39
2014-Sep-15 04:24
2014-Sep-15 04:08
2014-Sep-15 03:53
2014-Sep-15 03:38
2014-Sep-15 03:23
2014-Sep-15 03:08
2014-Sep-15 02:53
2014-Sep-15 02:38
2014-Sep-15 02:23 275 2 23.3
2014-Sep-15 02:08 234 1 23.9
2014-Sep-15 01:53 230 1 23.3
2014-Sep-15 01:38 232 4 22.2
2014-Sep-15 01:23 292 0 21.1
2014-Sep-15 01:08 009 21.1
2014-Sep-15 00:53 009 21.1
2014-Sep-15 00:38 009 21.7
2014-Sep-15 00:23 009 0 21.7
2014-Sep-15 00:08 009 21.7
2014-Sep-14 23:53 009 21.7
2014-Sep-14 23:38 009 22.2
2014-Sep-14 23:23 009 22.8
2014-Sep-14 23:08 009 0 22.8
2014-Sep-14 22:53 009 22.8
2014-Sep-14 22:38 009 22.8
2014-Sep-14 22:23 009 23.3
2014-Sep-14 22:08 009 23.3
2014-Sep-14 21:53 009 23.3
2014-Sep-14 21:38 009 0 24.4
2014-Sep-14 21:23 005 25.0
2014-Sep-14 21:08 009 25.6
2014-Sep-14 20:53 009 25.6
2014-Sep-14 20:38 009 25.6
2014-Sep-14 20:23 005 26.1
2014-Sep-14 20:08 009 26.7
2014-Sep-14 19:53 010 26.7
2014-Sep-14 19:38 010 27.2
2014-Sep-14 19:22 010 0 27.2
2014-Sep-14 19:07 010 28.3
2014-Sep-14 18:52 010 28.9
2014-Sep-14 18:37 010 1 29.4
2014-Sep-14 18:22 009 3 30.6
2014-Sep-14 18:07 342 0 31.1
2014-Sep-14 17:52 325 3 31.1
2014-Sep-14 17:37 182 9 31.1
2014-Sep-14 17:22 175 8 31.7
2014-Sep-14 17:07 170 9 32.2
2014-Sep-14 16:52 169 10 32.8
2014-Sep-14 16:37 181 10 32.8
2014-Sep-14 16:22 188 9 33.3
2014-Sep-14 16:07 188 9 33.3
2014-Sep-14 15:52 198 9 33.3
2014-Sep-14 15:37 180 10 33.3
2014-Sep-14 15:22 097 9 33.3
2014-Sep-14 15:07 200 8 33.9
2014-Sep-14 14:52 170 7 33.9
2014-Sep-14 14:37 175 6 33.9
2014-Sep-14 14:22 155 6 33.9
2014-Sep-14 14:07 125 5 33.9
2014-Sep-14 13:52 161 4 33.9
2014-Sep-14 13:37 085 3 33.9
2014-Sep-14 13:22 117 4 33.9
2014-Sep-14 13:07 076 2 33.9
2014-Sep-14 12:52 295 2 33.3
2014-Sep-14 12:37 073 0 33.9
2014-Sep-14 12:22 078 33.3
2014-Sep-14 12:07 078 0 32.8
2014-Sep-14 11:52 217 1 32.2
2014-Sep-14 11:37 292 1 31.7
2014-Sep-14 11:22 274 0 31.7
2014-Sep-14 11:07 267 0 31.1
2014-Sep-14 10:52 286 1 30.6
2014-Sep-14 10:37 279 1 30.0
2014-Sep-14 10:22 301 1 30.0
2014-Sep-14 10:06 291 1 28.9
2014-Sep-14 09:51 285 1 28.3
2014-Sep-14 09:36 306 0 27.8
2014-Sep-14 09:21 285 2 27.2
2014-Sep-14 09:06 262 1 26.7
2014-Sep-14 08:51 261 3 25.6
2014-Sep-14 08:36 269 2 25.0
2014-Sep-14 08:21 267 1 24.4
2014-Sep-14 08:06 271 2 23.9
2014-Sep-14 07:51 268 1 23.3
2014-Sep-14 07:36 267 1 23.3
2014-Sep-14 07:21 240 0 22.8
2014-Sep-14 07:06 238 22.2
2014-Sep-14 06:51 238 21.7
2014-Sep-14 06:36 238 21.1
2014-Sep-14 06:20 238 21.1
2014-Sep-14 06:05
2014-Sep-14 05:50
2014-Sep-14 05:35
2014-Sep-14 05:20
2014-Sep-14 05:05
2014-Sep-14 04:50
2014-Sep-14 04:35
2014-Sep-14 04:20
2014-Sep-14 04:05
2014-Sep-14 03:50
2014-Sep-14 03:35
2014-Sep-14 03:20
2014-Sep-14 03:05